Location: Cairns City
(16.9233°S, 145.7733°E)
Time: 23:52:24
(UTC+10:00)

OTV 5 (USA 277) - Visible Passes

Search period start: 22 October 2017 00:00
Search period end: 01 November 2017 00:00
Orbit: 404 x 417 km, 43.0° (Epoch: 07 September)

Date Brightness Start Highest point End Pass type
(mag) Time Alt. Az. Time Alt. Az. Time Alt. Az.
29 Oct ? 05:10:20 10° SSW 05:13:06 24° SE 05:15:51 10° E visible
29 Oct ? 20:04:58 10° NW 20:05:08 11° NW 20:05:08 11° NW visible
30 Oct ? 04:20:07 10° S 04:21:57 14° SE 04:23:47 10° ESE visible
30 Oct ? 19:14:12 10° NNW 19:17:18 35° NE 19:18:33 26° E visible
31 Oct ? 05:04:58 10° SW 05:08:17 82° NW 05:11:35 10° NE visible
31 Oct ? 20:00:36 10° W 20:03:30 26° SW 20:04:48 20° S visible
